Location: Carrières
(48.9495°N, 2.0407°E)
Time: 00:50:10
(UTC+00:00)

Cosmos 1606 Rocket - Pass Details

Date: 27 June 2024
Orbit: 599 x 628 km, 82.5° (Epoch: 15 July)

Event Time Altitude Azimuth Distance (km) Brightness Sun altitude
Rises 00:31:14 0° 353° (N) 2,912 8.5 -17.3°
Reaches altitude 10° 00:33:30 10° 357° (N) 1,996 7.4 -17.2°
Maximum altitude 00:37:53 61° 78° (ENE) 704 3.9 -17.1°
Enters shadow 00:40:16 25° 150° (SSE) 1,237 4.7 -17.0°
